Springboro, OH

9:36 AM EDT on September 28, 2016 (GMT -0400)
Dayton-Wright Brothers

Weather History for KMGY - May, 2013

Change the Weather History Date:

Monday, May 13, 2013

  Actual Average (KFFO) Record (KFFO)
Temperature  
Mean Temperature 49 °F -  
Max Temperature 59 °F 71 °F 86 °F (2005)
Min Temperature 39 °F 49 °F 36 °F (2013)
Degree Days  
Heating Degree Days 16    
Moisture  
Dew Point 30 °F    
Average Humidity 51    
Maximum Humidity 77    
Minimum Humidity 28    
Precipitation  
Precipitation 0.00 in - - ()
Sea Level Pressure  
Sea Level Pressure 30.14 in    
Wind  
Wind Speed 6 mph (NW)    
Max Wind Speed 12 mph    
Max Gust Speed 20 mph    
Visibility 10 miles    
Events      
Averages and records for this station are not official NWS values.
T = Trace of Precipitation, MM = Missing Value Source: NWS Daily Summary

Daily Weather History Graph

Daily Weather History Graph

Search for Another Location

Airport or City:

Trip Planner

Search our weather history database for the weather conditions in past years. The results will help you decide how hot, cold, wet, or windy it might be!

Date:

Astronomy

May. 13, 2013 Rise Set
Actual Time 6:24 AM EDT 8:42 PM EDT
Civil Twilight 5:54 AM EDT 9:13 PM EDT
Nautical Twilight 5:16 AM EDT 9:50 PM EDT
Astronomical Twilight 4:35 AM EDT 10:31 PM EDT
Moon 9:09 AM EDT (5/13) 11:51 PM EDT (5/13)
Length of Visible Light 15h 18m
Length of Day
14h 18m
Waxing Crescent, 12% of the Moon is Illuminated
May 13
Waxing Crescent
May 18
First Quarter
May 25
Full
May 31
Last Quarter
Jun 8
New

Hourly Weather History & Observations

Time (EDT) Temp. Windchill Dew Point Humidity Pressure Visibility Wind Dir Wind Speed Gust Speed Precip Events Conditions
12:53 AM 45.0 °F 41.2 °F 34.0 °F 65% 30.12 in 10.0 mi NNE 6.9 mph - N/A   Overcast
1:53 AM 44.1 °F 39.5 °F 34.0 °F 68% 30.12 in 10.0 mi NE 8.1 mph - N/A   Overcast
2:53 AM 42.1 °F 38.4 °F 32.0 °F 67% 30.11 in 10.0 mi East 5.8 mph - N/A   Mostly Cloudy
3:53 AM 43.0 °F 41.3 °F 30.0 °F 60% 30.11 in 10.0 mi East 3.5 mph - N/A   Overcast
4:53 AM 42.1 °F - 32.0 °F 67% 30.11 in 10.0 mi Calm Calm - N/A   Overcast
5:53 AM 41.0 °F 39.0 °F 33.1 °F 73% 30.11 in 10.0 mi South 3.5 mph - N/A   Overcast
6:53 AM 39.9 °F - 33.1 °F 77% 30.12 in 10.0 mi Calm Calm - N/A   Clear
7:53 AM 43.0 °F 40.3 °F 34.0 °F 71% 30.14 in 10.0 mi South 4.6 mph - N/A   Mostly Cloudy
8:53 AM 46.0 °F 44.8 °F 32.0 °F 58% 30.16 in 10.0 mi SE 3.5 mph - N/A   Clear
9:53 AM 50.0 °F - 33.1 °F 52% 30.18 in 10.0 mi Calm Calm - N/A   Clear
10:53 AM 53.1 °F - 34.0 °F 48% 30.18 in 10.0 mi North 4.6 mph - N/A   Clear
11:53 AM 54.0 °F - 28.0 °F 37% 30.18 in 10.0 mi NW 9.2 mph - N/A   Scattered Clouds
12:53 PM 54.0 °F - 30.0 °F 40% 30.17 in 10.0 mi WNW 8.1 mph - N/A   Overcast
1:53 PM 57.0 °F - 28.9 °F 34% 30.16 in 10.0 mi West 11.5 mph 19.6 mph N/A   Mostly Cloudy
2:53 PM 57.0 °F - 27.0 °F 32% 30.16 in 10.0 mi NW 10.4 mph 19.6 mph N/A   Mostly Cloudy
4:53 PM 57.0 °F - 24.1 °F 28% 30.14 in 10.0 mi WNW 9.2 mph - N/A   Partly Cloudy
5:53 PM 59.0 °F - 26.1 °F 28% 30.13 in 10.0 mi WNW 11.5 mph 18.4 mph N/A   Scattered Clouds
6:53 PM 57.9 °F - 25.0 °F 28% 30.12 in 10.0 mi WNW 11.5 mph - N/A   Partly Cloudy
8:53 PM 53.1 °F - 28.9 °F 40% 30.14 in 10.0 mi Calm Calm - N/A   Clear
9:53 PM 50.0 °F - 30.0 °F 46% 30.15 in 10.0 mi Calm Calm - N/A   Clear
10:53 PM 48.9 °F - 30.0 °F 48% 30.15 in 10.0 mi SSW 4.6 mph - N/A   Clear
11:53 PM 48.0 °F - 30.0 °F 50% 30.14 in 10.0 mi SSE 3.5 mph - N/A   Clear